Flag for U.S.A. Weather past 2 weeks in Fort Bragg, California, U.S.A.

Now
64 °F

Passing clouds.


Feels Like: 64 °F
Forecast: 53 / 60 °F
Wind: 3 mph from Northwest

Location: Ukiah Municipal

Current Time: Dec 22, 2014 at 4:40:24 PM

Latest Report: Dec 22, 2014 at 3:56 PM


Visibility: 10 mi

Pressure: 30.22 "Hg

Humidity: 68%

Dew point: 53 °F

Location of Fort BraggLocation

Historic Weather in Fort Bragg — Graph

°F

Fort Bragg temperature yesterday

Maximum temperature yesterday: 61 °F (at 2:56 PM)
Minimum temperature yesterday: 52 °F (at 10:56 PM)
Average temperature yesterday: 56 °F

Past Weeks' High & Low Weather Summary

 TemperatureHumidityPressure
High66 °F (Dec 22, 1:56 PM)97% (Dec 10, 5:56 PM)30.31 "Hg (Dec 10, 5:56 PM)
Low44 °F (Dec 14, 4:56 AM)61% (Dec 22, 2:56 PM)29.38 "Hg (Dec 11, 5:56 AM)
Average53 °F88%30.01 "Hg
* Reported Dec 7 2:56 PM — Dec 22 2:56 PM, Fort Bragg, Weather by CustomWeather, © 2014

Note: Actual official high and low records may vary slightly from our data, if they occured in-between our weather recording intervals... More about our weather records

Advertising

Fort Bragg weather history for previous 24 hours

 ConditionsComfort  
Time TempWeatherWind HumidityBarometerVisibility
2:56 PM
Dec 22
66 °FOvercast.8 mph61%30.21 "Hg10 mi
1:56 PM66 °FOvercast.5 mph63%30.22 "Hg10 mi
12:56 PM65 °FSunny.8 mph63%30.24 "Hg10 mi
11:56 AM64 °FSunny.9 mph65%30.26 "Hg10 mi
10:56 AM62 °FSunny.No wind73%30.29 "Hg10 mi
9:56 AM57 °FSunny.No wind83%30.30 "Hg10 mi
8:56 AM51 °FSunny.3 mph92%30.29 "Hg10 mi
7:56 AM48 °FSunny.No wind93%30.29 "Hg7 mi
6:56 AM49 °FClear.No wind93%30.29 "Hg9 mi
5:56 AM50 °FClear.No wind93%30.29 "Hg10 mi
4:56 AM50 °FClear.No wind93%30.28 "Hg10 mi
3:56 AM50 °FPassing clouds.No wind93%30.28 "Hg10 mi
2:56 AM51 °FFog.3 mph92%30.30 "Hg5 mi
1:56 AM53 °FOvercast.No wind93%30.29 "Hg7 mi
12:56 AM53 °FFog.No wind93%30.31 "Hg6 mi
11:56 PM
Dec 21
52 °FPassing clouds.No wind97%30.31 "Hg9 mi
10:56 PM52 °FFog.No wind93%30.31 "Hg3 mi
9:56 PM54 °FClear.No wind93%30.30 "Hg10 mi
8:56 PM54 °FClear.No wind97%30.29 "Hg10 mi
7:56 PM55 °FPassing clouds.No wind93%30.29 "Hg10 mi
6:56 PM59 °FPassing clouds.No wind84%30.27 "Hg10 mi
5:56 PM61 °FOvercast.No wind81%30.26 "Hg10 mi
4:56 PM61 °FOvercast.6 mph81%30.26 "Hg10 mi
Weather by CustomWeather, © 2014

See weather overviewHow to use our weather pages